Overview Statistics Trail Chart Weather Telemetry Raw packets
 

This is the latest recevied weather packets stored in our database for station/object S51UL-6. If no packets are shown the sender has not sent any weather packets the latest 10 day(s).

<< 53 54 55 56 57 58 59 >>
Time Temp. Humidity Pressure Rain* Wind** Luminosity Snow
1788173213 34.44° C 43% 1015.7 hPa 0 mm - - -
1788172914 33.33° C 46% 1015.7 hPa 0 mm - - -
1788172614 32.78° C 45% 1015.8 hPa 0 mm - - -
1788172313 32.22° C 45% 1015.7 hPa 0 mm - - -
1788172013 32.22° C 47% 1015.7 hPa 0 mm - - -
1788171713 31.67° C 48% 1015.8 hPa 0 mm - - -
1788171413 31.67° C 48% 1015.8 hPa 0 mm - - -
1788171113 31.11° C 50% 1015.6 hPa 0 mm - - -
1788170813 30.56° C 50% 1015.8 hPa 0 mm - - -
1788170513 30.56° C 50% 1016 hPa 0 mm - - -
1788170213 30° C 51% 1016.2 hPa 0 mm - - -
1788169913 30° C 52% 1016.2 hPa 0 mm - - -
1788169613 29.44° C 52% 1016.2 hPa 0 mm - - -
1788169313 29.44° C 53% 1016.2 hPa 0 mm - - -
1788169013 29.44° C 53% 1016.2 hPa 0 mm - - -
1788168713 29.44° C 54% 1016.3 hPa 0 mm - - -
1788168414 29.44° C 55% 1016.4 hPa 0 mm - - -
1788168114 28.89° C 55% 1016.3 hPa 0 mm - - -
1788167814 28.89° C 55% 1016.5 hPa 0 mm - - -
1788167214 28.33° C 56% 1016.3 hPa 0 mm - - -
1788166915 28.33° C 57% 1016.4 hPa 0 mm - - -
1788166614 28.33° C 57% 1016.5 hPa 0 mm - - -
1788166314 28.33° C 57% 1016.6 hPa 0 mm - - -
1788166014 28.33° C 58% 1016.4 hPa 0 mm - - -
1788165414 28.33° C 59% 1016.5 hPa 0 mm - - -

* Rain latest hour (hover to see other rain measurements)
** Current wind speed in m/s (hover to see current wind gust speed)